2022-155D (54254 NORAD) Tracking and Keplerian Element Data

This shows tracking and keplerian element data for the satellite.

Feedback or suggestion? Click here.




ElementValue
Catalog54254
Name2022-155D
Epoch Orbit75
Epoch Day325.22948402
Epoch Year2022
RAAN69.9193
Inclination97.5371
Eccentricity0.0013244
Argument of Perigee272.1179
Mean Anonmoly174.988
Mean Motion15.09289343
Decay Rate4.226E-05
L11 54254U 22155D 22325.22948402 .00004226 00000+0 26866-3 0 9994
L22 54254 97.5371 69.9193 0013244 272.1179 174.9880 15.09289343 757



Live tracking and technical data element details for 2022-155D (NORAD 54254). 2022-155D can be tracked NOW for your location showing map with azimuth and elevation plus other details from your city location.







IsCatalogInMostPopularTable: catalog: 54254, numindb: 4
Update: records affected: 1



GetName: 54254 2022-155D

Hit Count: updated at: Sun, 04 Dec 2022 21:14:48 GMT